Home > Weather > Sandnes > Past weeks

Flag for Norway Past Weather in Sandnes, Norway — Yesterday and Last 2 Weeks

Now
59 °F

Broken clouds.


Feels Like: 56 °F
Forecast: 52 / 61 °F
Wind: 16 mph from South

Location: Stavanger / Sola

Current Time: Jun 27, 2016 at 1:28:45 PM

Latest Report: Jun 27, 2016 at 12:50 PM


Visibility: N/A

Pressure: 29.68 "Hg

Humidity: 82%

Dew Point: 54 °F

Location of SandnesLocation

Past Weather in Sandnes — Graph

°F

Sandnes Temperature Yesterday

Maximum temperature yesterday: 64 °F (at 3:50 PM)
Minimum temperature yesterday: 55 °F (at 12:50 AM)
Average temperature yesterday: 58 °F

High & Low Weather Summary for the Past Weeks

 TemperatureHumidityPressure
High70 °F (Jun 23, 2:50 PM)100% (Jun 17, 1:50 AM)30.12 "Hg (Jun 17, 1:50 AM)
Low45 °F (Jun 20, 2:50 AM)35% (Jun 13, 10:50 AM)29.53 "Hg (Jun 15, 3:50 AM)
Average59 °F80%29.82 "Hg
* Reported Jun 12 11:20 AM — Jun 27 11:50 AM, Sandnes, Weather by CustomWeather, © 2016

Note: Actual official high and low records may vary slightly from our data, if they occured in-between our weather recording intervals... More about our weather records

Advertising

Sandnes Weather History for the Previous 24 Hours

Scroll right to see more
 ConditionsComfort  
Time TempWeatherWind HumidityBarometerVisibility
11:50 AM
Mon, Jun 27
59 °FDrizzle. Broken clouds.16 mph88%29.68 "HgN/A
11:20 AM59 °FBroken clouds.15 mph82%29.68 "HgN/A
10:50 AM57 °FLight rain. Broken clouds.13 mph88%29.68 "HgN/A
10:20 AM57 °FDrizzle. Broken clouds.10 mph88%29.71 "HgN/A
9:50 AM57 °FDrizzle. Broken clouds.9 mph88%29.71 "HgN/A
9:20 AM55 °FDrizzle. Broken clouds.8 mph94%29.71 "HgN/A
8:50 AM55 °FDrizzle. Broken clouds.7 mph94%29.71 "Hg5 mi
8:20 AM54 °FDrizzle. Broken clouds.8 mph100%29.71 "Hg5 mi
7:50 AM54 °FDrizzle. Fog.7 mph100%29.71 "Hg4 mi
7:20 AM55 °FDrizzle. Fog.6 mph94%29.71 "Hg3 mi
6:50 AM54 °FDrizzle. Broken clouds.3 mph100%29.71 "Hg4 mi
6:20 AM54 °FDrizzle. Broken clouds.7 mph100%29.71 "Hg6 mi
5:50 AM54 °FBroken clouds.5 mph94%29.71 "HgN/A
5:20 AM54 °FPartly cloudy.5 mph94%29.74 "HgN/A
4:50 AM54 °FFog.7 mph94%29.74 "Hg3 mi
3:50 AM54 °FPartly cloudy.6 mph100%29.74 "Hg6 mi
2:50 AM54 °FPartly cloudy.3 mph100%29.77 "Hg6 mi
1:50 AM55 °FLight rain. Partly cloudy.7 mph94%29.77 "Hg4 mi
12:50 AM55 °FDrizzle. Fog.8 mph94%29.77 "Hg2 mi
12:20 AM55 °FDrizzle. Fog.8 mph94%29.77 "Hg4 mi
11:50 PM
Sun, Jun 26
55 °FDrizzle. Fog.10 mph94%29.77 "Hg2 mi
11:20 PM55 °FDrizzle. Fog.12 mph94%29.77 "Hg1 mi
10:50 PM55 °FDrizzle. Fog.10 mph94%29.77 "Hg1 mi
10:20 PM55 °FDrizzle. Fog.12 mph100%29.77 "Hg1 mi
9:50 PM55 °FDrizzle. Fog.10 mph100%29.74 "Hg1 mi
9:20 PM57 °FDrizzle. Fog.10 mph94%29.74 "Hg2 mi
8:50 PM57 °FDrizzle. Fog.10 mph94%29.74 "Hg1 mi
8:20 PM57 °FDrizzle. Fog.10 mph94%29.74 "Hg1 mi
7:50 PM57 °FFog.9 mph94%29.71 "Hg1 mi
7:20 PM57 °FLow clouds.8 mph94%29.71 "Hg4 mi
6:50 PM57 °FDrizzle. Fog.9 mph100%29.71 "Hg1 mi
6:20 PM57 °FDrizzle. Fog.8 mph100%29.71 "Hg1 mi
5:50 PM57 °FDrizzle. Fog.7 mph100%29.71 "Hg1 mi
5:20 PM59 °FFog.6 mph94%29.68 "Hg1 mi
4:50 PM59 °FDrizzle. Fog.7 mph94%29.68 "Hg1 mi
4:20 PM61 °FDrizzle. Fog.9 mph94%29.68 "Hg3 mi
3:50 PM64 °FDrizzle. Broken clouds.7 mph88%29.68 "HgN/A
3:20 PM63 °FBroken clouds.7 mph94%29.68 "HgN/A
2:50 PM63 °FBroken clouds.5 mph94%29.68 "HgN/A
2:20 PM61 °FBroken clouds.3 mph94%29.68 "HgN/A
1:50 PM61 °FPartly sunny.7 mph94%29.68 "HgN/A
1:20 PM61 °FDrizzle. Light fog.6 mph94%29.68 "Hg4 mi
Weather by CustomWeather, © 2016

See weather overviewHow to use our weather pages